Location: Bieg
(49.3499°N, 10.3835°E)
Time: 00:35:51
(UTC+00:00)

ASTEX 1 - Pass Details

Date: 23 May 2024
Orbit: 715 x 740 km, 92.7° (Epoch: 11 June)

Event Time Altitude Azimuth Distance (km) Brightness Sun altitude
Rises 02:27:55 0° 159° (SSE) 3,149 6.4 -8.0°
Reaches altitude 10° 02:30:15 10° 155° (SSE) 2,228 5.7 -7.7°
Maximum altitude 02:35:03 55° 79° (ENE) 875 4.2 -7.2°
Drops below altitude 10° 02:39:51 10° 2° (N) 2,228 6.6 -6.6°
Sets 02:42:10 0° 358° (N) 3,150 7.3 -6.3°
